Richlands, VA

6:16 PM EDT on July 25, 2017 (GMT -0400)
Tazewell County

Weather History for KJFZ - March, 2014

Change the Weather History Date:

Sunday, March 30, 2014

  Actual Average (KBLF) Record (KBLF)
Temperature  
Mean Temperature 37 °F -  
Max Temperature 43 °F 60 °F 83 °F (1985)
Min Temperature 31 °F 41 °F 9 °F (1964)
Degree Days  
Heating Degree Days 28    
Moisture  
Dew Point 31 °F    
Average Humidity 84    
Maximum Humidity 96    
Minimum Humidity 62    
Precipitation  
Precipitation 0.00 in - - ()
Sea Level Pressure  
Sea Level Pressure 30.00 in    
Wind  
Wind Speed 10 mph (NW)    
Max Wind Speed 15 mph    
Max Gust Speed 24 mph    
Visibility 5 miles    
Events Fog , Snow    
Averages and records for this station are not official NWS values.
T = Trace of Precipitation, MM = Missing Value Source: NWS Daily Summary

Daily Weather History Graph

Daily Weather History Graph

Search for Another Location

Airport or City:

Trip Planner

Search our weather history database for the weather conditions in past years. The results will help you decide how hot, cold, wet, or windy it might be!

Date:

Astronomy

Mar. 30, 2014 Rise Set
Actual Time 7:15 AM EDT 7:47 PM EDT
Civil Twilight 6:49 AM EDT 8:14 PM EDT
Nautical Twilight 6:19 AM EDT 8:44 PM EDT
Astronomical Twilight 5:47 AM EDT 9:16 PM EDT
Moon 7:00 AM EDT (3/30) 7:58 PM EDT (3/30)
Length of Visible Light 13h 24m
Length of Day
12h 32m
Waning Crescent, 0% of the Moon is Illuminated
Mar 30
Waning Crescent
Mar 30
New
Apr 7
First Quarter
Apr 15
Full
Apr 22
Last Quarter

Hourly Weather History & Observations

Time (EDT) Temp. Windchill Dew Point Humidity Pressure Visibility Wind Dir Wind Speed Gust Speed Precip Events Conditions
12:15 AM 33.4 °F 24.3 °F 32.0 °F 94% 29.87 in 1.5 mi WNW 12.7 mph 19.6 mph N/A Snow Light Snow
12:35 AM 33.1 °F 24.9 °F 31.5 °F 94% 29.87 in 1.8 mi NW 10.4 mph 19.6 mph N/A Snow Light Snow
12:55 AM 32.9 °F 22.8 °F 31.3 °F 94% 29.88 in 1.2 mi NW 15.0 mph 20.7 mph N/A Snow Light Snow
1:15 AM 32.4 °F 23.0 °F 31.1 °F 95% 29.88 in 0.8 mi NW 12.7 mph - N/A Snow Snow
1:35 AM 32.0 °F 23.0 °F 30.7 °F 95% 29.88 in 1.5 mi NW 11.5 mph 18.4 mph N/A Snow Light Snow
2:15 AM 32.0 °F 23.0 °F 30.6 °F 94% 29.87 in 2.0 mi NW 11.5 mph 18.4 mph N/A Snow Light Snow
2:35 AM 32.0 °F 24.2 °F 30.0 °F 92% 29.87 in 4.0 mi NW 9.2 mph 17.3 mph N/A Snow Light Snow
2:55 AM 32.0 °F 23.6 °F 29.8 °F 92% 29.87 in 3.0 mi NW 10.4 mph 17.3 mph N/A Snow Light Snow
3:15 AM 32.0 °F 23.0 °F 29.8 °F 92% 29.87 in 1.8 mi NW 11.5 mph 19.6 mph N/A Snow Light Snow
3:35 AM 32.0 °F 23.0 °F 29.3 °F 90% 29.87 in 2.5 mi NW 11.5 mph 19.6 mph N/A Snow Light Snow
3:55 AM 31.8 °F 22.8 °F 29.3 °F 90% 29.87 in 2.5 mi NW 11.5 mph - N/A Snow Light Snow
4:15 AM 31.6 °F 23.1 °F 29.5 °F 92% 29.87 in 1.2 mi NW 10.4 mph - N/A Snow Light Snow
4:35 AM 31.6 °F 23.7 °F 29.5 °F 92% 29.87 in 2.0 mi NW 9.2 mph 19.6 mph N/A Snow Light Snow
4:55 AM 31.6 °F 23.1 °F 29.3 °F 91% 29.88 in 1.8 mi NW 10.4 mph 16.1 mph N/A Snow Light Snow
5:15 AM 31.6 °F 24.4 °F 29.5 °F 92% 29.88 in 1.5 mi NW 8.1 mph 17.3 mph N/A Snow Light Snow
5:35 AM 31.6 °F 23.7 °F 29.3 °F 91% 29.89 in 2.5 mi NW 9.2 mph - N/A Snow Light Snow
5:55 AM 31.8 °F 22.3 °F 29.3 °F 90% 29.89 in 4.0 mi NW 12.7 mph - N/A Snow Light Snow
6:15 AM 31.8 °F 24.6 °F 29.1 °F 90% 29.90 in 4.0 mi NW 8.1 mph - N/A Snow Light Snow
6:35 AM 31.8 °F 23.3 °F 29.1 °F 90% 29.91 in 4.0 mi NW 10.4 mph 16.1 mph N/A Snow Light Snow
6:55 AM 31.8 °F 23.9 °F 29.3 °F 90% 29.91 in 2.5 mi NW 9.2 mph 16.1 mph N/A Snow Light Snow
7:15 AM 31.8 °F 23.9 °F 29.3 °F 90% 29.92 in 4.0 mi NW 9.2 mph 18.4 mph N/A Snow Light Snow
7:35 AM 32.0 °F 24.2 °F 29.3 °F 90% 29.93 in 5.0 mi NW 9.2 mph 18.4 mph N/A   Overcast
7:55 AM 32.0 °F 23.6 °F 29.3 °F 90% 29.94 in 4.0 mi NW 10.4 mph 18.4 mph N/A Snow Light Snow
8:15 AM 32.0 °F 26.4 °F 29.3 °F 90% 29.96 in 2.5 mi NW 5.8 mph 16.1 mph N/A Snow Light Snow
8:35 AM 32.0 °F 24.8 °F 29.3 °F 90% 29.97 in 2.0 mi NW 8.1 mph - N/A Snow Light Snow
8:55 AM 32.0 °F 24.8 °F 29.7 °F 91% 29.97 in 3.0 mi NW 8.1 mph 18.4 mph N/A Snow Light Snow
9:15 AM 32.0 °F 24.2 °F 30.0 °F 92% 29.98 in 2.5 mi NW 9.2 mph 19.6 mph N/A   Overcast
9:35 AM 32.0 °F 22.5 °F 30.2 °F 93% 29.98 in 0.2 mi NW 12.7 mph 21.9 mph N/A Fog Fog
9:55 AM 32.0 °F 23.6 °F 30.7 °F 95% 29.99 in 0.2 mi NNW 10.4 mph 18.4 mph N/A Fog Fog
10:15 AM 32.0 °F 22.1 °F 30.6 °F 94% 30.00 in 0.2 mi NW 13.8 mph 20.7 mph N/A Fog Fog
10:35 AM 32.0 °F 22.5 °F 30.6 °F 94% 30.01 in 0.2 mi NW 12.7 mph 21.9 mph N/A Fog Fog
10:55 AM 32.0 °F 23.6 °F 30.6 °F 94% 30.02 in 0.2 mi NW 10.4 mph 24.2 mph N/A Fog Fog
11:15 AM 32.0 °F 23.6 °F 30.7 °F 95% 30.03 in 0.2 mi NW 10.4 mph 17.3 mph N/A Fog Fog
11:35 AM 32.0 °F 22.5 °F 30.7 °F 95% 30.03 in 0.2 mi NW 12.7 mph 18.4 mph N/A Fog Fog
11:55 AM 32.0 °F 23.6 °F 30.7 °F 95% 30.04 in 0.2 mi NNW 10.4 mph - N/A Fog Fog
12:15 PM 32.0 °F 24.2 °F 30.9 °F 96% 30.03 in 0.2 mi NW 9.2 mph 17.3 mph N/A Fog Fog
12:35 PM 32.0 °F 23.6 °F 30.7 °F 95% 30.04 in 0.2 mi NW 10.4 mph - N/A Fog Fog
12:55 PM 32.0 °F 24.8 °F 30.6 °F 94% 30.03 in 0.2 mi WNW 8.1 mph - N/A Fog Fog
1:15 PM 32.0 °F 24.8 °F 30.6 °F 94% 30.03 in 0.2 mi NW 8.1 mph - N/A Fog Fog
1:35 PM 32.0 °F 23.6 °F 30.9 °F 96% 30.03 in 0.2 mi WNW 10.4 mph - N/A Fog Fog
1:55 PM 32.4 °F 24.6 °F 31.1 °F 95% 30.04 in 1.2 mi NW 9.2 mph - N/A   Overcast
2:15 PM 32.5 °F 25.5 °F 31.3 °F 95% 30.04 in 4.0 mi NW 8.1 mph 19.6 mph N/A   Overcast
2:35 PM 32.5 °F 24.8 °F 31.1 °F 94% 30.04 in 7.0 mi NW 9.2 mph - N/A   Overcast
2:55 PM 32.9 °F 25.9 °F 31.1 °F 93% 30.04 in 10.0 mi NW 8.1 mph 17.3 mph N/A   Overcast
3:15 PM 33.4 °F 25.4 °F 30.4 °F 89% 30.05 in 10.0 mi WNW 10.4 mph 21.9 mph N/A   Overcast
3:35 PM 34.7 °F 29.6 °F 30.9 °F 86% 30.05 in 10.0 mi NW 5.8 mph 18.4 mph N/A   Overcast
3:55 PM 35.1 °F 25.9 °F 30.2 °F 82% 30.05 in 10.0 mi NW 13.8 mph 17.3 mph N/A   Overcast
4:15 PM 36.0 °F 28.0 °F 31.1 °F 82% 30.05 in 10.0 mi WNW 11.5 mph - N/A   Overcast
4:35 PM 36.7 °F 30.5 °F 31.6 °F 82% 30.05 in 10.0 mi NNW 8.1 mph - N/A   Overcast
4:55 PM 37.8 °F 31.3 °F 32.0 °F 80% 30.05 in 10.0 mi NW 9.2 mph - N/A   Overcast
5:15 PM 39.4 °F 36.1 °F 32.2 °F 75% 30.05 in 10.0 mi NW 4.6 mph - N/A   Overcast
5:35 PM 40.5 °F 37.3 °F 32.7 °F 74% 30.05 in 10.0 mi WNW 4.6 mph - N/A   Mostly Cloudy
5:55 PM 42.4 °F 38.1 °F 33.1 °F 69% 30.05 in 10.0 mi NW 6.9 mph - N/A   Mostly Cloudy
6:15 PM 43.3 °F 37.2 °F 33.3 °F 68% 30.05 in 10.0 mi NW 11.5 mph 18.4 mph N/A   Mostly Cloudy
6:35 PM 43.3 °F 38.6 °F 32.9 °F 67% 30.05 in 10.0 mi NW 8.1 mph 17.3 mph N/A   Scattered Clouds
6:55 PM 43.7 °F 38.1 °F 33.3 °F 67% 30.06 in 10.0 mi WNW 10.4 mph - N/A   Scattered Clouds
7:15 PM 43.7 °F 40.3 °F 32.9 °F 66% 30.06 in 10.0 mi WNW 5.8 mph - N/A   Clear
7:35 PM 43.5 °F 38.9 °F 32.4 °F 65% 30.06 in 10.0 mi NW 8.1 mph - N/A   Scattered Clouds
7:55 PM 42.8 °F 39.3 °F 32.0 °F 66% 30.07 in 10.0 mi WNW 5.8 mph - N/A   Clear
8:15 PM 42.8 °F 38.6 °F 31.1 °F 63% 30.07 in 10.0 mi NW 6.9 mph - N/A   Clear
8:35 PM 42.8 °F 39.3 °F 30.9 °F 63% 30.08 in 10.0 mi WNW 5.8 mph - N/A   Clear
8:55 PM 42.8 °F 39.3 °F 31.1 °F 63% 30.08 in 10.0 mi WNW 5.8 mph - N/A   Clear
9:15 PM 42.4 °F 37.5 °F 30.9 °F 64% 30.10 in 10.0 mi West 8.1 mph - N/A   Clear
9:35 PM 42.3 °F 38.6 °F 30.4 °F 63% 30.10 in 10.0 mi WNW 5.8 mph - N/A   Clear
9:55 PM 42.1 °F 37.1 °F 30.0 °F 62% 30.11 in 10.0 mi WNW 8.1 mph - N/A   Clear
10:15 PM 41.7 °F 38.0 °F 30.0 °F 63% 30.11 in 10.0 mi WNW 5.8 mph - N/A   Clear
10:35 PM 41.9 °F 37.5 °F 29.7 °F 62% 30.12 in 10.0 mi WNW 6.9 mph - N/A   Clear
10:55 PM 41.2 °F 37.3 °F 29.5 °F 63% 30.12 in 10.0 mi WNW 5.8 mph - N/A   Clear
11:15 PM 41.0 °F 37.1 °F 29.3 °F 63% 30.13 in 10.0 mi West 5.8 mph - N/A   Clear
11:35 PM 41.0 °F 37.1 °F 29.1 °F 63% 30.13 in 10.0 mi WNW 5.8 mph - N/A   Clear
11:55 PM 40.6 °F 37.5 °F 28.9 °F 63% 30.13 in 10.0 mi West 4.6 mph - N/A   Clear